This is the latest recevied weather packets stored in our database for station/object KQ4DLB-13. If no packets are shown the sender has not sent any weather packets the latest 10 day(s).
| Time | Temp. | Humidity | Pressure | Rain* | Wind** | Luminosity | Snow |
|---|---|---|---|---|---|---|---|
| 1777313702 | 27.22° C | 60% | 988.7 hPa | 0 mm | - | 510 W/m² | - |
| 1777313402 | 27.22° C | 60% | 988.8 hPa | 0 mm | - | 620 W/m² | - |
| 1777313103 | 26.67° C | 61% | 988.7 hPa | 0 mm | - | 766 W/m² | - |
| 1777312802 | 27.22° C | 60% | 988.7 hPa | 0 mm | - | 565 W/m² | - |
| 1777312502 | 27.22° C | 61% | 988.8 hPa | 0 mm | - | 582 W/m² | - |
| 1777312202 | 27.22° C | 59% | 988.9 hPa | 0 mm | - | 392 W/m² | - |
| 1777311902 | 27.22° C | 60% | 989 hPa | 0 mm | - | 818 W/m² | - |
| 1777311602 | 27.22° C | 60% | 989.1 hPa | 0 mm | - | 844 W/m² | - |
| 1777311303 | 26.67° C | 61% | 989.1 hPa | 0 mm | - | 906 W/m² | - |
| 1777311003 | 26.67° C | 60% | 989.1 hPa | 0 mm | - | 950 W/m² | - |
| 1777310703 | 26.67° C | 61% | 989.2 hPa | 0 mm | - | 954 W/m² | - |
| 1777310402 | 26.67° C | 61% | 989.2 hPa | 0 mm | - | 907 W/m² | - |
| 1777310103 | 26.67° C | 61% | 989.4 hPa | 0 mm | - | 916 W/m² | - |
| 1777309802 | 26.11° C | 62% | 989.4 hPa | 0 mm | - | 937 W/m² | - |
| 1777309503 | 25.56° C | 63% | 989.5 hPa | 0 mm | - | 773 W/m² | - |
| 1777309202 | 26.11° C | 62% | 989.4 hPa | 0 mm | - | 623 W/m² | - |
| 1777308902 | 26.11° C | 62% | 989.4 hPa | 0 mm | - | 608 W/m² | - |
| 1777308603 | 26.11° C | 62% | 989.5 hPa | 0 mm | - | 853 W/m² | - |
| 1777308302 | 25.56° C | 63% | 989.6 hPa | 0 mm | - | 870 W/m² | - |
| 1777308002 | 25.56° C | 63% | 989.7 hPa | 0 mm | - | 871 W/m² | - |
| 1777307702 | 25° C | 63% | 989.8 hPa | 0 mm | - | 866 W/m² | - |
| 1777307402 | 25° C | 63% | 989.9 hPa | 0 mm | - | 856 W/m² | - |
| 1777307102 | 25° C | 64% | 990 hPa | 0 mm | - | 824 W/m² | - |
| 1777306802 | 25° C | 64% | 990 hPa | 0 mm | - | 839 W/m² | - |
| 1777306502 | 25° C | 64% | 990.1 hPa | 0 mm | - | 831 W/m² | - |
* Rain latest hour (hover to see other rain measurements)
** Current wind speed in m/s (hover to see current wind gust speed)